Wind_Speed
36 36 36 36 36 36 36 35 35 34 34 34 34 34 33 33 33 32 32 31 30 30 30 29 29 29 28 28 27 27 27 27 28 28 28 28 27 27 27 27 27 27 27
38 38 38 38 38 38 38 37 37 37 37 36 36 36 36 35 34 34 34 34 33 32 31 31 31 30 30 29 29 29 29 29 30 30 30 30 29 29 29 29 29 29 29
39 39 40 40 40 40 40 39 39 39 38 39 38 37 38 38 37 36 36 36 36 35 34 33 33 32 32 32 32 32 31 32 32 32 32 32 32 32 32 32 31 31 31
41 41 41 41 41 41 41 41 41 41 41 41 41 40 40 39 39 39 38 37 37 37 37 36 36 35 35 35 35 35 34 34 34 34 33 33 33 33 33 33 33 33 33
42 42 42 42 41 41 42 42 42 43 42 42 42 42 41 41 41 40 40 40 39 39 38 38 38 38 37 37 37 36 36 36 36 36 35 34 34 34 34 34 34 34 34
44 44 44 44 42 43 43 43 43 43 43 43 44 44 43 42 42 43 42 42 41 41 40 40 40 40 39 38 38 38 38 38 38 38 37 35 35 35 35 35 35 35 35
46 46 46 46 45 45 44 43 43 43 44 44 45 45 45 45 45 45 45 44 44 43 43 43 42 42 41 41 40 40 40 40 39 39 38 38 37 37 37 37 37 36 36
46 47 47 47 46 46 45 45 44 44 44 45 46 46 47 47 47 47 47 46 46 45 45 44 44 44 43 43 42 42 42 42 42 41 41 40 40 40 39 39 38 38 37
47 47 47 47 47 47 47 47 46 46 46 46 46 46 47 48 49 48 48 48 47 47 47 47 46 46 45 45 44 44 44 44 43 43 42 42 42 41 41 41 40 40 40
48 47 47 47 47 47 48 48 47 47 47 47 48 48 48 48 49 49 50 50 49 49 49 48 48 49 49 48 47 47 46 46 45 44 44 44 44 43 43 43 43 43 42
48 49 48 48 48 49 49 49 49 49 49 49 48 49 49 49 50 50 50 50 50 51 51 51 50 50 51 50 50 50 48 48 46 46 46 45 45 45 45 44 44 44 44
49 49 49 49 50 51 51 51 51 51 51 50 50 50 50 49 50 50 50 50 51 52 53 53 52 52 52 52 51 51 50 49 48 48 48 47 47 47 46 46 45 45 45
49 50 50 50 49 49 50 50 51 50 50 50 51 51 50 50 51 52 52 52 52 52 54 54 54 54 54 53 53 52 51 51 50 50 50 50 50 49 48 48 47 47 47
50 51 51 51 50 49 49 50 50 50 50 51 51 51 51 51 52 52 53 53 53 53 53 55 55 55 56 55 55 54 54 53 53 53 52 52 52 51 51 50 50 49 50
48 49 50 50 51 51 51 50 50 51 51 52 52 52 52 52 52 52 53 54 54 54 53 53 54 55 56 56 56 56 56 56 55 54 54 54 53 53 53 52 51 51 51
49 49 50 51 52 52 52 52 52 52 52 52 53 53 54 54 53 53 54 55 55 55 54 53 54 55 56 57 57 57 57 57 57 56 56 56 55 54 54 53 53 53 53
50 50 50 51 52 53 53 53 53 53 54 54 55 55 54 55 55 55 55 55 55 55 55 54 54 55 57 58 58 58 58 58 58 57 57 58 57 57 56 56 55 55 55
51 51 51 52 53 54 54 55 55 55 55 55 55 56 56 56 56 56 56 56 55 56 56 56 55 56 57 58 59 59 59 59 59 59 59 59 58 58 58 58 57 57 56
53 53 53 53 54 54 55 56 57 57 57 56 57 57 57 57 56 56 55 55 55 56 56 56 56 56 57 58 60 60 60 60 60 60 59 59 59 59 59 59 59 58 58
53 54 54 55 56 55 56 56 56 57 57 58 57 57 57 57 57 57 57 57 57 57 57 57 57 57 58 58 59 59 60 60 60 61 60 60 60 60 60 60 60 60 60
53 55 55 55 55 55 56 56 57 57 57 58 58 57 57 57 58 58 58 59 59 58 57 57 57 57 58 58 58 59 60 60 61 61 61 61 62 62 62 62 61 61 61
52 53 54 55 56 55 55 56 56 57 57 57 57 57 57 57 57 58 58 59 59 59 59 58 58 58 57 57 57 58 59 60 61 61 62 62 63 63 63 62 61 61 61
50 51 52 53 54 54 55 56 56 56 56 56 57 57 58 57 57 58 58 59 59 60 60 59 59 58 58 58 58 58 59 60 60 61 62 62 63 63 63 62 62 62 62
49 49 50 52 52 53 54 55 56 56 55 55 55 56 58 58 59 58 58 59 59 60 60 60 60 59 59 59 59 59 59 60 61 61 62 61 61 62 62 62 62 61 61
47 48 49 50 51 52 52 53 54 54 54 55 55 56 57 57 58 59 59 59 59 60 60 60 60 60 60 60 60 60 59 60 60 61 62 62 61 62 62 61 61 60 60
47 47 49 49 50 50 50 51 53 53 53 54 54 55 55 56 56 57 58 59 59 59 60 60 60 60 60 61 61 61 60 60 60 60 61 61 61 61 60 59 59 59 58
Wind_Direction
256 255 255 255 255 254 254 254 253 252 252 252 252 252 252 252 251 252 252 252 251 251 251 251 251 251 251 252 252 253 253 255 257 258 259 261 263 264 265 266 268 269 269
257 256 255 254 254 254 254 254 254 253 251 251 252 252 252 252 252 252 252 252 252 252 252 251 251 250 250 250 252 254 255 256 257 259 259 261 262 263 264 265 267 267 268
258 257 256 255 254 254 254 253 253 253 252 251 252 253 252 252 252 252 252 252 252 253 253 253 252 251 251 252 254 255 256 258 259 260 261 262 262 262 263 265 266 267 267
258 257 257 256 256 255 254 253 252 252 253 252 251 252 252 252 252 252 252 252 253 253 254 254 254 253 253 255 256 256 258 259 260 261 262 263 263 263 264 265 266 266 267
257 257 257 256 255 254 253 254 252 252 252 253 252 252 252 252 253 253 253 253 253 253 254 254 255 255 255 257 258 258 259 260 261 261 262 263 264 264 265 266 266 267 267
258 257 256 255 254 253 252 252 253 253 253 252 252 252 252 251 252 253 254 253 253 254 254 255 256 255 256 257 259 259 260 260 261 261 262 262 263 263 263 265 267 267 268
257 256 257 255 254 253 252 252 252 253 253 254 254 253 252 252 251 253 253 253 253 254 255 255 256 256 256 257 258 259 260 261 261 261 261 262 262 262 263 264 266 267 267
256 255 256 255 254 253 252 252 252 254 254 254 254 254 252 253 253 253 253 253 253 254 254 255 256 256 256 257 257 258 260 261 261 261 262 263 262 264 265 265 266 266 267
256 254 254 254 253 253 253 253 253 254 254 254 253 254 253 252 252 252 253 253 254 254 254 255 256 256 257 257 257 259 260 260 261 261 262 262 262 264 265 266 266 266 267
255 255 254 254 254 254 253 253 253 253 253 253 253 254 255 254 253 252 253 253 254 254 255 255 256 257 257 258 258 259 260 260 260 261 262 263 263 264 266 267 267 267 267
256 255 255 255 255 254 254 253 254 254 253 254 254 255 255 255 254 254 253 254 254 255 255 256 257 257 258 259 260 260 259 259 259 261 262 263 264 265 266 267 267 268 268
256 255 255 255 255 254 254 254 254 254 254 254 254 255 255 255 255 255 255 255 256 256 256 256 257 257 258 259 259 260 259 259 260 260 261 263 264 266 266 266 267 267 268
256 255 255 255 254 254 254 254 255 255 255 255 256 256 256 256 256 257 257 256 257 257 257 257 258 258 258 259 259 259 259 260 260 260 261 263 264 265 266 266 266 267 268
258 257 256 255 255 255 255 255 255 256 255 256 257 257 258 258 257 258 259 258 258 258 258 258 257 258 258 259 258 259 260 260 260 261 262 263 264 265 266 267 266 267 267
258 257 256 256 255 255 255 256 256 255 255 256 257 258 258 259 260 260 260 260 260 259 259 259 259 258 258 258 259 259 260 260 261 261 262 263 264 265 266 266 266 267 267
258 258 258 257 255 255 255 256 256 256 257 257 258 258 259 259 260 260 260 260 260 260 259 259 260 259 258 258 259 260 260 261 261 261 261 262 263 264 265 266 266 266 267
258 258 258 257 255 254 255 256 257 258 259 258 258 259 259 260 259 259 260 259 259 260 260 260 260 260 259 259 259 260 261 261 261 261 261 261 263 264 264 265 266 266 267
259 259 259 258 256 256 256 257 257 258 259 259 259 259 259 260 259 260 260 259 259 260 260 259 259 260 260 259 259 260 260 261 260 261 261 262 262 264 265 266 266 266 267
260 259 259 259 257 257 257 257 258 258 258 259 259 260 260 259 259 259 260 260 259 260 260 260 260 260 261 260 260 260 260 260 260 260 261 262 263 264 265 266 267 267 267
261 260 260 259 258 257 258 257 257 258 258 258 258 258 259 259 259 259 259 259 259 259 260 260 260 260 261 261 261 260 260 260 260 260 261 262 263 264 266 267 268 268 268
262 261 260 259 257 257 257 257 257 257 258 258 258 258 259 259 259 259 259 259 259 259 260 260 261 261 262 262 262 262 261 261 261 262 262 263 263 264 266 267 267 268 268
263 261 260 259 258 258 257 258 259 259 259 259 258 258 258 258 259 259 259 259 260 260 260 261 261 262 263 263 263 262 262 262 262 262 263 264 264 265 266 267 267 268 268
263 261 261 259 259 259 258 259 259 259 259 258 257 257 257 258 258 258 259 259 260 260 260 261 262 262 263 263 263 263 264 263 264 264 264 264 265 266 266 267 268 268 269
264 263 262 260 259 260 259 259 259 259 258 258 258 258 257 257 257 258 258 258 259 260 260 261 261 262 262 262 263 264 265 265 265 264 265 265 266 266 267 267 268 268 269
265 265 264 262 262 261 260 260 259 260 259 259 259 259 259 259 258 258 258 259 259 260 260 261 262 261 261 262 263 265 265 265 265 265 266 266 266 267 267 267 267 268 268
266 266 265 264 263 262 262 262 261 261 260 260 260 260 261 260 259 259 258 258 258 258 258 260 260 261 261 262 263 264 264 265 265 265 265 266 267 267 266 266 266 267 267
Height
5767 5769 5770 5772 5774 5776 5778 5780 5782 5784 5786 5789 5791 5793 5795 5797 5799 5801 5803 5805 5807 5808 5810 5812 5813 5815 5817 5818 5820 5821 5822 5823 5825 5826 5828 5829 5830 5831 5831 5832 5833 5833 5834
5758 5760 5761 5763 5765 5767 5769 5772 5774 5776 5778 5780 5783 5785 5787 5789 5791 5794 5796 5798 5800 5802 5803 5805 5807 5808 5810 5812 5813 5815 5816 5817 5818 5820 5821 5822 5823 5824 5825 5826 5826 5827 5828
5749 5751 5752 5754 5756 5758 5760 5762 5764 5766 5769 5771 5773 5776 5778 5781 5783 5786 5788 5790 5792 5794 5796 5798 5800 5801 5803 5805 5806 5808 5809 5810 5811 5813 5814 5815 5816 5817 5818 5819 5819 5820 5821
5740 5741 5742 5744 5746 5748 5750 5752 5754 5757 5759 5761 5764 5767 5769 5772 5774 5777 5779 5781 5784 5786 5788 5790 5792 5794 5795 5797 5798 5800 5801 5803 5804 5805 5806 5808 5809 5809 5810 5811 5812 5812 5813
5729 5731 5732 5734 5736 5737 5739 5741 5744 5747 5749 5751 5754 5756 5759 5762 5764 5767 5770 5772 5774 5777 5779 5781 5783 5785 5787 5788 5790 5792 5793 5794 5795 5797 5798 5799 5800 5801 5802 5803 5804 5805 5805
5718 5720 5722 5723 5725 5727 5729 5731 5733 5736 5738 5741 5743 5746 5749 5751 5754 5757 5760 5762 5765 5767 5770 5772 5774 5776 5778 5780 5781 5783 5784 5785 5787 5788 5789 5790 5791 5792 5794 5795 5795 5796 5797
5707 5709 5710 5712 5714 5716 5719 5721 5723 5725 5727 5730 5733 5735 5738 5741 5744 5746 5749 5752 5755 5757 5760 5762 5764 5766 5768 5770 5772 5773 5774 5775 5777 5778 5779 5781 5782 5783 5784 5785 5786 5787 5788
5695 5697 5698 5700 5703 5705 5707 5709 5711 5714 5716 5719 5721 5724 5727 5730 5732 5735 5738 5741 5743 5746 5749 5751 5753 5755 5757 5759 5761 5763 5764 5765 5767 5768 5769 5771 5772 5773 5775 5776 5777 5777 5778
5682 5684 5686 5689 5691 5693 5696 5698 5700 5703 5705 5707 5709 5712 5715 5718 5721 5724 5726 5729 5732 5734 5737 5740 5742 5744 5746 5749 5750 5752 5754 5755 5756 5758 5759 5760 5762 5763 5764 5765 5766 5767 5768
5669 5671 5674 5676 5679 5681 5684 5686 5688 5691 5693 5695 5697 5700 5703 5705 5709 5712 5715 5717 5720 5722 5725 5728 5730 5732 5735 5737 5739 5741 5743 5744 5745 5747 5748 5749 5751 5752 5753 5754 5755 5756 5757
5657 5659 5661 5663 5666 5668 5671 5674 5676 5678 5681 5683 5685 5687 5690 5692 5695 5698 5703 5705 5707 5710 5712 5715 5717 5720 5722 5724 5727 5729 5730 5732 5734 5735 5737 5738 5739 5741 5742 5743 5744 5744 5745
5644 5645 5648 5650 5653 5655 5658 5661 5663 5665 5668 5670 5672 5675 5677 5679 5682 5685 5688 5692 5694 5697 5699 5701 5704 5706 5709 5711 5713 5715 5718 5719 5721 5723 5724 5726 5727 5728 5730 5731 5732 5732 5733
5631 5632 5634 5637 5639 5642 5644 5647 5649 5652 5654 5657 5659 5661 5664 5666 5669 5672 5674 5677 5680 5683 5685 5687 5690 5692 5695 5697 5699 5701 5704 5706 5708 5710 5711 5713 5714 5716 5717 5718 5719 5720 5721
5618 5619 5621 5623 5626 5628 5630 5633 5636 5638 5640 5643 5645 5648 5650 5653 5655 5658 5660 5662 5665 5668 5671 5673 5675 5677 5680 5682 5684 5687 5689 5692 5694 5696 5697 5699 5700 5702 5703 5705 5706 5707 5708
5604 5606 5607 5610 5612 5614 5617 5619 5622 5624 5627 5629 5631 5634 5636 5638 5641 5643 5645 5647 5650 5653 5656 5659 5661 5662 5664 5667 5669 5672 5674 5676 5679 5681 5682 5684 5686 5688 5689 5691 5692 5693 5694
5590 5592 5594 5596 5598 5600 5603 5605 5608 5610 5612 5614 5616 5619 5621 5624 5626 5628 5630 5632 5635 5637 5640 5644 5646 5647 5649 5651 5653 5656 5658 5660 5663 5665 5667 5669 5671 5672 5674 5676 5677 5678 5679
5576 5578 5579 5581 5583 5586 5588 5590 5593 5595 5597 5599 5601 5603 5606 5608 5610 5612 5614 5617 5619 5622 5625 5628 5630 5632 5633 5635 5638 5640 5642 5645 5647 5649 5651 5653 5655 5657 5659 5661 5662 5663 5664
5562 5563 5564 5566 5568 5570 5572 5574 5577 5579 5581 5583 5585 5587 5590 5592 5594 5596 5598 5601 5603 5606 5608 5611 5614 5616 5618 5620 5622 5624 5626 5628 5631 5633 5635 5637 5639 5641 5643 5644 5646 5648 5649
5546 5547 5549 5550 5552 5554 5556 5558 5560 5563 5565 5567 5569 5571 5573 5575 5578 5580 5582 5584 5587 5589 5592 5594 5597 5600 5601 5603 5605 5607 5609 5612 5614 5617 5619 5621 5623 5624 5626 5628 5629 5631 5633
5530 5531 5532 5534 5535 5537 5539 5541 5543 5546 5548 5550 5552 5554 5557 5559 5561 5563 5566 5568 5570 5573 5575 5577 5580 5583 5585 5586 5588 5591 5593 5595 5598 5600 5602 5604 5606 5608 5610 5612 5614 5615 5616
5513 5514 5515 5516 5518 5520 5522 5524 5526 5528 5531 5533 5535 5538 5540 5542 5544 5546 5549 5551 5553 5556 5558 5561 5563 5566 5568 5570 5572 5574 5576 5578 5581 5583 5585 5588 5590 5592 5593 5594 5596 5597 5598
5497 5498 5499 5500 5502 5504 5506 5507 5509 5511 5513 5516 5518 5520 5523 5525 5527 5529 5532 5534 5537 5539 5542 5545 5547 5550 5552 5554 5555 5557 5559 5561 5565 5568 5569 5570 5572 5574 5576 5577 5578 5579 5580
5482 5482 5483 5484 5486 5488 5490 5491 5493 5494 5496 5498 5500 5503 5505 5507 5509 5512 5514 5517 5519 5522 5525 5528 5531 5533 5536 5538 5539 5541 5542 5544 5547 5549 5550 5553 5554 5556 5558 5559 5560 5561 5562
5467 5467 5468 5469 5471 5473 5474 5475 5476 5478 5479 5481 5483 5485 5487 5490 5492 5494 5497 5500 5502 5505 5508 5511 5514 5517 5518 5519 5521 5523 5524 5526 5529 5530 5532 5535 5537 5538 5540 5541 5542 5543 5544
5453 5453 5454 5455 5456 5457 5458 5459 5460 5461 5463 5465 5467 5468 5470 5472 5475 5477 5480 5483 5485 5487 5489 5492 5495 5498 5500 5502 5503 5505 5507 5509 5511 5513 5514 5516 5519 5520 5522 5523 5524 5525 5526
5439 5439 5440 5440 5441 5442 5443 5443 5444 5446 5448 5450 5451 5452 5454 5455 5457 5459 5461 5464 5467 5470 5472 5475 5477 5479 5481 5484 5485 5488 5490 5492 5494 5496 5498 5499 5501 5501 5504 5506 5506 5507 5508